Shon Levy

Chefscout - Hapoel Raanana
6 Aug 2028
Sonntag
Verarbeitung

Persönlichkeit

Anpassungsfähigkeit (3) Ehrgeiz (1) Kontroverse (6) Loyalität (3) Druck (10) Professionalität (15) Fairness (10) Temperament (13)

Profil

Trainerstil Demokratisch
Lizenz Nationale A
Entschlossenheit 3
Menschenführung 10
Motivation 5
Disziplin 3
Arbeitszufriedenheit
100%
Ermüdung
0%
Rolle Chefscout
Gehalt 48.8K p/W
Vertrag 14.03.2030

Leistung

Verhalten Gut
Trainingseffektivität
39%
Spielerentwicklung
40%
Verletzungsprävention
30%
Taktische Umsetzung
20%

Letzte Ereignisse

Nahm an einer Scouting-Besprechung teil jetzt
Nahm an einer Scouting-Besprechung teil 7T her
Nahm an einer Scouting-Besprechung teil 7T her
Nahm an einer Scouting-Besprechung teil 7T her
Nahm an einer Scouting-Besprechung teil 14T her
Nahm an einer Scouting-Besprechung teil 14T her
Nahm an einer Scouting-Besprechung teil 14T her
Nahm an einer Scouting-Besprechung teil 21T her

Aktuell beobachtet

90
Spieler Verein Status Fähigkeit Vertrauen Beobachtet Zuletzt beobachtet Letzte Stimme
Niv Antman Bnei Sakhnin Aktiv 82 / 77 55% 1 07.01.2028 -
Esteban da Silva Racing Aktiv 122 / 109 40% 1 31.12.2027 Mehr Infos nötig
Samuel Kalu Botev Plovdiv Aktiv 128 / 108 40% 1 31.12.2027 Mehr Infos nötig
Sebastián Parera Aktiv 89 / 101 55% 1 12.07.2027 -
Roey Magor Maccabi Tel Aviv Aktiv 85 / 78 51% 1 21.06.2027 -
Will Swan Bradford City Aktiv 93 / 118 40% 1 01.06.2027 -
Rui Costa Port Vale Aktiv 102 / 95 40% 4 29.05.2027 -
Tyrese Shade Burton Albion Aktiv 103 / 107 40% 1 29.05.2027 -
Andy Rinomhota Reading Aktiv 103 / 127 40% 1 28.05.2027 -
Sheyi Ojo Crewe Alexandra Aktiv 114 / 122 40% 1 28.05.2027 -
Ar'jany Martha Rotherham United Aktiv 104 / 107 40% 2 27.05.2027 -
Ben Garrity Port Vale Aktiv 99 / 96 40% 1 26.05.2027 -
Ryan Wintle Milton Keynes Dons Aktiv 101 / 109 40% 1 26.05.2027 -
Malik Mothersille Stockport County Aktiv 102 / 101 40% 1 23.05.2027 -
Callum Wright Plymouth Argyle Aktiv 98 / 110 40% 1 23.05.2027 -
Harry Anderson Bristol Rovers Aktiv 116 / 92 40% 2 18.05.2027 -
Jack Moylan Lincoln City Aktiv 118 / 115 40% 1 18.05.2027 -
Alex Lowry Wycombe Wanderers Aktiv 112 / 131 40% 1 13.05.2027 -
Declan Frith Peterborough United Aktiv 113 / 96 40% 2 12.05.2027 Mehr Infos nötig
Josh Flint Gillingham Aktiv 97 / 114 40% 1 05.05.2027 -
Rúben Rodrigues Bolton Wanderers Aktiv 108 / 126 40% 1 04.05.2027 Mehr Infos nötig
Nathan Moriah-Welsh Mansfield Town Aktiv 110 / 115 40% 1 01.05.2027 -
Xavier Amaechi Plymouth Argyle Aktiv 100 / 117 40% 2 30.04.2027 -
Stephen Humphrys Bradford City Aktiv 106 / 107 40% 3 29.04.2027 -
Tyreece Campbell Charlton Athletic Aktiv 121 / 104 40% 2 27.04.2027 -
Paddy Lane Reading Aktiv 111 / 104 40% 2 27.04.2027 -
Tony Springett Cheltenham Town Aktiv 117 / 117 40% 1 25.04.2027 -
George Earthy Reading Aktiv 112 / 116 40% 2 22.04.2027 -
Harvey Knibbs Charlton Athletic Aktiv 119 / 111 40% 1 22.04.2027 -
Jay Matete Milton Keynes Dons Aktiv 101 / 100 40% 2 21.04.2027 -
Thierry Rendall Correia Venezia Aktiv 142 / 137 40% 2 20.04.2027 -
George Byers Port Vale Aktiv 108 / 103 40% 1 17.04.2027 -
Adam Phillips Northampton Town Aktiv 98 / 121 40% 1 16.04.2027 -
Matheus Davó Maccabi Netanya Aktiv 125 / 118 40% 1 16.04.2027 -
Charles Vernam Grimsby Town Aktiv 120 / 121 40% 2 13.04.2027 -
Simone Rabbi Ravenna Aktiv 115 / 94 40% 1 13.04.2027 -
Atsuki Ito Bolton Wanderers Aktiv 125 / 138 40% 1 07.04.2027 -
Stanislav Biblyk Chaika Aktiv 99 / 90 40% 1 02.01.2027 -
Stanislav Magkeev Fakel Aktiv 120 / 113 40% 1 30.12.2026 Mehr Infos nötig
Adrián Guerrero Debrecen Aktiv 120 / 121 40% 1 28.12.2026 -
Karem Jaber Maccabi Netanya Aktiv 121 / 108 40% 2 27.12.2026 -
Stefan Lončar Akron Aktiv 100 / 127 40% 1 27.12.2026 -
Ítalo Ural Aktiv 116 / 107 40% 1 25.12.2026 -
Wesley Tarxien Rainbows Aktiv 103 / 112 40% 1 25.12.2026 -
Marcus Coco Hapoel Tel Aviv Aktiv 127 / 124 40% 4 24.12.2026 -
Arne Maier Ujpest Aktiv 120 / 131 40% 1 24.12.2026 -
Saná Gomes Bnei Sakhnin Aktiv 104 / 93 40% 2 20.12.2026 -
Artem Sokol Rodina Aktiv 113 / 105 40% 1 19.12.2026 -
Libor Holík Spartak Trnava Aktiv 107 / 128 40% 2 18.12.2026 -
Laros Duarte Puskas Akademia Aktiv 107 / 123 40% 1 18.12.2026 -
Mohammed Hindi Maccabi Petach Tikva Aktiv 111 / 96 40% 1 17.12.2026 -
Eneko Astigarraga Real Sociedad Aktiv 82 / 106 40% 1 17.12.2026 -
Nikita Kakkoev Nizhniy Novgorod Aktiv 129 / 103 40% 1 15.12.2026 -
Vyacheslav Yakimov Fakel Aktiv 102 / 107 40% 1 14.12.2026 -
Serginho Levski Aktiv 108 / 134 40% 3 12.12.2026 -
Eldar Ćivić Baltika Aktiv 114 / 108 40% 1 12.12.2026 -
Thomas Carrique Andorra Aktiv 104 / 122 40% 1 10.12.2026 -
Li On Mizrahi Maccabi Netanya Aktiv 109 / 108 40% 1 10.12.2026 -
Ivan Kričak Hapoel Haifa Aktiv 124 / 112 40% 2 09.12.2026 Mehr Infos nötig
Yoan Stoyanov Hapoel Beer Sheva Aktiv 128 / 121 40% 1 09.12.2026 Mehr Infos nötig
Nana Antwi Beitar Jerusalem Aktiv 113 / 118 40% 1 02.12.2026 -
António Eirô Lokomotiv Sofia Aktiv 97 / 114 40% 1 01.12.2026 -
Dominik Kostka MFK Ruzomberok Aktiv 101 / 118 40% 1 30.11.2026 -
Samuel Hubocan FK Senica Aktiv 116 / 104 40% 1 29.11.2026 -
George Broadbent Doncaster Rovers Aktiv 87 / 82 40% 1 27.11.2026 -
Nathan Gassama Baltika Aktiv 121 / 107 40% 1 27.11.2026 -
Luka Vešner Tičić NK Celje Aktiv 129 / 113 40% 1 25.11.2026 -
Pedro Amador Hapoel Beer Sheva Aktiv 122 / 126 40% 1 24.11.2026 -
Jean-Philippe Gbamin CSKA Sofia Aktiv 143 / 106 40% 1 23.11.2026 -
Robbie McKenzie Gillingham Aktiv 112 / 104 40% 1 23.11.2026 -
Shai Elias Hapoel Haifa Aktiv 108 / 120 40% 2 22.11.2026 -
Sandi Zajc NK Domzale Aktiv 104 / 101 40% 1 22.11.2026 -
Denver Hume Fleetwood Town Aktiv 103 / 119 40% 1 20.11.2026 -
Matthew Guillaumier Hamrun Spartans Aktiv 91 / 86 40% 1 20.11.2026 -
Ipalibo Jack Hamrun Spartans Aktiv 104 / 102 40% 1 19.11.2026 -
João Victor CSKA Moscow Aktiv 134 / 140 40% 1 18.11.2026 -
Andrian Kraev Hapoel Tel Aviv Aktiv 134 / 115 40% 2 17.11.2026 -
Gustavo Sliema Wanderers Aktiv 105 / 104 40% 1 17.11.2026 -
Joe Rothwell Sheffield United Aktiv 132 / 109 40% 1 16.11.2026 -
Fernand Mayembo Hapoel Tel Aviv Aktiv 104 / 121 40% 1 15.11.2026 -
Maron Ghantous Bnei Sakhnin Aktiv 97 / 115 40% 1 14.11.2026 -
Wylan Cyprien Maccabi Netanya Aktiv 122 / 103 40% 1 13.11.2026 -
Álex Centelles Levski Aktiv 128 / 127 40% 1 12.11.2026 -
Kevin Pina Krasnodar Aktiv 119 / 124 40% 1 09.11.2026 -
Yves Bissouma Tottenham Aktiv 153 / 154 40% 1 08.11.2026 -
Modestas Vorobjovas Bnei Sakhnin Aktiv 105 / 110 40% 1 07.11.2026 -
Jaïro Riedewald Sheffield United Aktiv 109 / 138 40% 1 25.08.2026 -
Johnly Yfeko Exeter City Aktiv 118 / 117 40% 1 17.08.2026 -
Mauricio Cardillo San Lorenzo Aktiv 113 / 112 40% 1 10.08.2026 -
Jordan Amissah Burton Albion Aktiv 94 / 78 40% 1 01.08.2026 -